TimeEDT,TemperatureF,Dew PointF,Humidity,Sea Level PressureIn,VisibilityMPH,Wind Direction,Wind SpeedMPH,Gust SpeedMPH,PrecipitationIn,Events,Conditions,WindDirDegrees,DateUTC
12:53 AM,64.9,62.1,90,29.90,8.0,WNW,8.1,-,N/A,,Clear,300,2013-08-03 04:53:00
1:53 AM,64.9,61.0,87,29.92,8.0,West,6.9,-,N/A,,Clear,280,2013-08-03 05:53:00
2:53 AM,64.0,59.0,84,29.93,10.0,NW,5.8,-,N/A,,Clear,310,2013-08-03 06:53:00
3:53 AM,62.1,57.9,86,29.93,10.0,West,4.6,-,N/A,,Clear,270,2013-08-03 07:53:00
4:53 AM,60.1,57.0,90,29.94,10.0,WNW,3.5,-,N/A,,Clear,290,2013-08-03 08:53:00
5:53 AM,59.0,55.9,90,29.96,10.0,West,5.8,-,N/A,,Clear,280,2013-08-03 09:53:00
6:53 AM,57.9,55.0,90,29.97,10.0,NW,3.5,-,N/A,,Clear,310,2013-08-03 10:53:00
7:53 AM,63.0,57.0,81,29.97,10.0,NW,3.5,-,N/A,,Clear,320,2013-08-03 11:53:00
8:53 AM,64.9,57.0,75,29.98,10.0,Calm,Calm,-,N/A,,Clear,0,2013-08-03 12:53:00
9:53 AM,69.1,55.9,63,29.99,10.0,NNW,5.8,-,N/A,,Clear,340,2013-08-03 13:53:00
10:53 AM,71.1,55.9,59,29.99,10.0,Variable,4.6,-,N/A,,Partly Cloudy,0,2013-08-03 14:53:00
11:53 AM,72.0,55.0,55,29.99,10.0,Variable,6.9,-,N/A,,Mostly Cloudy,0,2013-08-03 15:53:00
12:53 PM,73.0,55.0,53,29.99,10.0,WNW,8.1,-,N/A,,Mostly Cloudy,300,2013-08-03 16:53:00
1:53 PM,75.9,51.1,42,30.00,10.0,West,12.7,19.6,N/A,,Mostly Cloudy,280,2013-08-03 17:53:00
2:53 PM,75.0,48.9,40,30.00,10.0,NW,11.5,20.7,N/A,,Mostly Cloudy,310,2013-08-03 18:53:00
3:53 PM,75.9,51.1,42,29.99,10.0,NW,11.5,-,N/A,,Scattered Clouds,320,2013-08-03 19:53:00
4:53 PM,75.0,50.0,41,30.00,10.0,WNW,13.8,20.7,N/A,,Mostly Cloudy,290,2013-08-03 20:53:00
5:53 PM,73.9,52.0,46,29.99,10.0,WNW,11.5,-,N/A,,Scattered Clouds,290,2013-08-03 21:53:00
6:53 PM,73.0,53.1,49,29.99,10.0,WNW,9.2,-,N/A,,Scattered Clouds,300,2013-08-03 22:53:00
7:53 PM,73.0,53.1,49,29.99,10.0,NW,6.9,-,N/A,,Scattered Clouds,320,2013-08-03 23:53:00
8:53 PM,70.0,54.0,57,30.01,10.0,NNW,6.9,-,N/A,,Mostly Cloudy,340,2013-08-04 00:53:00
9:53 PM,66.9,54.0,63,30.03,10.0,North,5.8,-,N/A,,Scattered Clouds,350,2013-08-04 01:53:00
10:53 PM,64.9,53.1,65,30.04,10.0,North,8.1,-,N/A,,Scattered Clouds,350,2013-08-04 02:53:00
11:53 PM,63.0,53.1,70,30.06,10.0,NNW,6.9,-,N/A,,Partly Cloudy,340,2013-08-04 03:53:00